Altus, OK

5:15 AM CST on February 26, 2017 (GMT -0600)
Altus Municipal

Weather History for KAXS - October, 2011

Change the Weather History Date:

Friday, October 7, 2011

  Actual Average (KLTS) Record (KLTS)
Temperature  
Mean Temperature 82 °F -  
Max Temperature 91 °F 77 °F 97 °F (2014)
Min Temperature 72 °F 55 °F 39 °F (2012)
Cooling Degree Days 16    
Growing Degree Days 32 (Base 50)    
Moisture  
Dew Point 62 °F    
Average Humidity 57    
Maximum Humidity 73    
Minimum Humidity 32    
Precipitation  
Precipitation 0.00 in - - ()
Sea Level Pressure  
Sea Level Pressure 29.92 in    
Wind  
Wind Speed 20 mph (SSE)    
Max Wind Speed 30 mph    
Max Gust Speed 36 mph    
Visibility 10 miles    
Events      
Averages and records for this station are not official NWS values.
T = Trace of Precipitation, MM = Missing Value Source: NWS Daily Summary

Daily Weather History Graph

Daily Weather History Graph

Search for Another Location

Airport or City:

Trip Planner

Search our weather history database for the weather conditions in past years. The results will help you decide how hot, cold, wet, or windy it might be!

Date:

Astronomy

Oct. 07, 2011 Rise Set
Actual Time 7:36 AM CDT 7:13 PM CDT
Civil Twilight 7:11 AM CDT 7:38 PM CDT
Nautical Twilight 6:42 AM CDT 8:07 PM CDT
Astronomical Twilight 6:12 AM CDT 8:37 PM CDT
Moon 4:49 PM CDT (10/7) 3:36 AM CDT (10/7)
Length of Visible Light 12h 27m
Length of Day
11h 37m
Waxing Gibbous, 83% of the Moon is Illuminated
Oct 7
Waxing Gibbous
Oct 11
Full
Oct 19
Last Quarter
Oct 26
New
Nov 2
First Quarter

Hourly Weather History & Observations

Time (CDT) Temp. Heat Index Dew Point Humidity Pressure Visibility Wind Dir Wind Speed Gust Speed Precip Events Conditions
12:15 AM 77.0 °F - 61.3 °F 58% 29.87 in 10.0 mi SE 21.9 mph - N/A   Clear
12:35 AM 77.0 °F - 61.7 °F 59% 29.88 in 10.0 mi SSE 18.4 mph 25.3 mph N/A   Clear
12:55 AM 77.0 °F - 62.1 °F 60% 29.88 in 10.0 mi SSE 18.4 mph 25.3 mph N/A   Clear
1:15 AM 77.0 °F - 62.4 °F 61% 29.87 in 10.0 mi SSE 23.0 mph 27.6 mph N/A   Clear
1:35 AM 77.0 °F - 62.6 °F 61% 29.87 in 10.0 mi SSE 20.7 mph 27.6 mph N/A   Clear
1:55 AM 77.0 °F - 62.8 °F 61% 29.88 in 10.0 mi SSE 20.7 mph 27.6 mph N/A   Clear
2:15 AM 76.8 °F - 63.0 °F 62% 29.88 in 10.0 mi SSE 20.7 mph 24.2 mph N/A   Clear
2:35 AM 76.6 °F - 63.1 °F 63% 29.89 in 10.0 mi SSE 21.9 mph 27.6 mph N/A   Clear
2:55 AM 76.5 °F - 63.7 °F 64% 29.89 in 10.0 mi SSE 23.0 mph 28.8 mph N/A   Clear
3:15 AM 76.3 °F - 64.0 °F 66% 29.89 in 10.0 mi SSE 21.9 mph 28.8 mph N/A   Clear
3:35 AM 75.9 °F - 64.4 °F 67% 29.90 in 10.0 mi SSE 17.3 mph 29.9 mph N/A   Clear
3:55 AM 75.4 °F - 64.4 °F 69% 29.90 in 10.0 mi SSE 18.4 mph 24.2 mph N/A   Clear
4:15 AM 75.0 °F - 64.4 °F 69% 29.90 in 10.0 mi SSE 20.7 mph 27.6 mph N/A   Clear
4:35 AM 74.8 °F - 64.4 °F 70% 29.90 in 10.0 mi SSE 19.6 mph - N/A   Scattered Clouds
4:55 AM 74.5 °F - 64.0 °F 70% 29.91 in 10.0 mi SSE 18.4 mph 23.0 mph N/A   Scattered Clouds
5:15 AM 74.3 °F - 63.5 °F 69% 29.91 in 10.0 mi SSE 20.7 mph - N/A   Clear
5:35 AM 73.9 °F - 63.1 °F 69% 29.91 in 10.0 mi SSE 19.6 mph 24.2 mph N/A   Clear
5:55 AM 73.6 °F - 62.8 °F 69% 29.92 in 10.0 mi SSE 17.3 mph 26.5 mph N/A   Clear
6:15 AM 73.4 °F - 62.2 °F 68% 29.92 in 10.0 mi SSE 17.3 mph 23.0 mph N/A   Clear
6:35 AM 73.2 °F - 62.1 °F 68% 29.93 in 10.0 mi SSE 15.0 mph - N/A   Clear
7:15 AM 72.9 °F - 62.1 °F 69% 29.93 in 10.0 mi SSE 15.0 mph - N/A   Clear
7:35 AM 72.7 °F - 62.4 °F 70% 29.94 in 10.0 mi SSE 15.0 mph 21.9 mph N/A   Scattered Clouds
7:55 AM 72.9 °F - 62.8 °F 71% 29.94 in 10.0 mi SSE 16.1 mph 21.9 mph N/A   Scattered Clouds
8:15 AM 72.9 °F - 63.1 °F 71% 29.97 in 10.0 mi SSE 10.4 mph - N/A   Mostly Cloudy
8:35 AM 73.2 °F - 63.9 °F 72% 29.97 in 10.0 mi SSE 12.7 mph - N/A   Overcast
8:55 AM 73.6 °F - 64.4 °F 73% 29.97 in 10.0 mi SSE 15.0 mph 20.7 mph N/A   Overcast
9:15 AM 74.1 °F - 64.4 °F 72% 29.98 in 10.0 mi SSE 16.1 mph - N/A   Overcast
9:35 AM 74.7 °F - 64.4 °F 70% 29.98 in 10.0 mi SSE 16.1 mph 25.3 mph N/A   Overcast
9:55 AM 75.2 °F - 64.4 °F 69% 29.98 in 10.0 mi South 18.4 mph 25.3 mph N/A   Overcast
10:15 AM 75.6 °F - 64.0 °F 67% 29.99 in 10.0 mi South 19.6 mph 24.2 mph N/A   Overcast
10:35 AM 75.9 °F - 63.9 °F 66% 29.99 in 10.0 mi South 16.1 mph 19.6 mph N/A   Overcast
10:55 AM 76.6 °F - 63.5 °F 64% 29.99 in 10.0 mi SSE 20.7 mph 25.3 mph N/A   Mostly Cloudy
11:15 AM 77.0 °F - 63.5 °F 63% 29.99 in 10.0 mi South 15.0 mph 25.3 mph N/A   Mostly Cloudy
11:35 AM 78.1 °F - 62.6 °F 59% 29.99 in 10.0 mi South 20.7 mph 27.6 mph N/A   Mostly Cloudy
12:15 PM 80.1 °F 81.5 °F 63.3 °F 56% 29.98 in 10.0 mi South 20.7 mph 26.5 mph N/A   Scattered Clouds
12:35 PM 81.3 °F 82.6 °F 63.0 °F 54% 29.97 in 10.0 mi SSE 18.4 mph 27.6 mph N/A   Scattered Clouds
12:55 PM 82.2 °F 83.3 °F 62.8 °F 52% 29.97 in 10.0 mi SSE 19.6 mph 24.2 mph N/A   Scattered Clouds
1:15 PM 82.9 °F 83.8 °F 62.4 °F 50% 29.96 in 10.0 mi SSE 20.7 mph 31.1 mph N/A   Scattered Clouds
1:35 PM 84.6 °F 85.0 °F 61.9 °F 46% 29.94 in 10.0 mi SSE 20.7 mph 26.5 mph N/A   Scattered Clouds
2:35 PM 88.0 °F 87.6 °F 60.1 °F 39% 29.92 in 10.0 mi SSE 20.7 mph 29.9 mph N/A   Clear
2:55 PM 88.9 °F 88.3 °F 59.2 °F 37% 29.90 in 10.0 mi South 21.9 mph 27.6 mph N/A   Clear
3:15 PM 89.8 °F 88.6 °F 58.1 °F 34% 29.89 in 10.0 mi South 23.0 mph 28.8 mph N/A   Clear
3:35 PM 90.9 °F 89.4 °F 57.6 °F 32% 29.89 in 10.0 mi SSE 19.6 mph 29.9 mph N/A   Clear
3:55 PM 91.0 °F 89.7 °F 57.0 °F 32% 29.88 in 10.0 mi SSE 20.7 mph 34.5 mph N/A   Clear
4:15 PM 90.9 °F 89.4 °F 57.2 °F 32% 29.88 in 10.0 mi SSE 23.0 mph 31.1 mph N/A   Clear
4:35 PM 91.0 °F 89.7 °F 57.4 °F 32% 29.88 in 10.0 mi SSE 25.3 mph 34.5 mph N/A   Clear
4:55 PM 90.5 °F 89.5 °F 58.5 °F 34% 29.88 in 10.0 mi SSE 26.5 mph 33.4 mph N/A   Clear
5:15 PM 88.7 °F 88.3 °F 59.9 °F 38% 29.87 in 10.0 mi SSE 29.9 mph 35.7 mph N/A   Scattered Clouds
5:35 PM 88.5 °F 88.3 °F 60.8 °F 39% 29.87 in 10.0 mi SE 24.2 mph 34.5 mph N/A   Clear
5:55 PM 87.3 °F 87.5 °F 61.9 °F 42% 29.88 in 10.0 mi SE 26.5 mph 33.4 mph N/A   Clear
6:15 PM 86.0 °F 86.6 °F 62.4 °F 45% 29.88 in 10.0 mi SE 25.3 mph 34.5 mph N/A   Scattered Clouds
6:35 PM 85.3 °F 85.9 °F 62.6 °F 46% 29.88 in 10.0 mi SE 27.6 mph 34.5 mph N/A   Clear
6:55 PM 84.9 °F 85.6 °F 62.8 °F 47% 29.88 in 10.0 mi SE 25.3 mph 31.1 mph N/A   Scattered Clouds
7:15 PM 84.2 °F 85.0 °F 62.8 °F 48% 29.88 in 10.0 mi SE 24.2 mph 29.9 mph N/A   Clear
7:35 PM 83.7 °F 84.5 °F 62.8 °F 49% 29.89 in 10.0 mi SE 23.0 mph 31.1 mph N/A   Clear
7:55 PM 83.3 °F 84.1 °F 62.2 °F 49% 29.89 in 10.0 mi SE 23.0 mph 32.2 mph N/A   Clear
8:15 PM 82.9 °F 83.7 °F 61.9 °F 49% 29.90 in 10.0 mi SE 21.9 mph 26.5 mph N/A   Clear
8:35 PM 81.5 °F 82.8 °F 63.1 °F 54% 29.90 in 10.0 mi SE 24.2 mph - N/A   Clear
8:55 PM 81.0 °F 82.3 °F 63.5 °F 55% 29.90 in 10.0 mi SE 23.0 mph 28.8 mph N/A   Clear
9:15 PM 80.8 °F 82.1 °F 63.3 °F 55% 29.91 in 10.0 mi SE 20.7 mph 27.6 mph N/A   Clear
9:35 PM 80.6 °F 81.9 °F 63.1 °F 55% 29.91 in 10.0 mi SE 26.5 mph 29.9 mph N/A   Clear
9:55 PM 80.4 °F 81.7 °F 63.0 °F 55% 29.91 in 10.0 mi SE 25.3 mph 31.1 mph N/A   Clear
10:15 PM 80.1 °F 81.5 °F 63.0 °F 56% 29.92 in 10.0 mi SE 24.2 mph 33.4 mph N/A   Clear
10:35 PM 79.5 °F - 63.0 °F 57% 29.92 in 10.0 mi SE 24.2 mph 29.9 mph N/A   Clear
10:55 PM 79.2 °F - 63.0 °F 57% 29.92 in 10.0 mi SE 25.3 mph 32.2 mph N/A   Clear
11:15 PM 78.8 °F - 63.0 °F 58% 29.91 in 10.0 mi SE 23.0 mph 29.9 mph N/A   Clear
11:35 PM 78.8 °F - 63.0 °F 58% 29.91 in 10.0 mi SE 23.0 mph 32.2 mph N/A   Clear
11:55 PM 78.8 °F - 63.0 °F 58% 29.92 in 10.0 mi SE 24.2 mph 31.1 mph N/A   Clear